Terug naar catalogus

STARLINK-31425

ActiefCommunicatieVLEO
NORAD 59253·PAYLOAD·🇺🇸 United States

Gelanceerd Mar 16, 2024 vanaf Cape Canaveral Space Force Station

Loading…

Volgende Passages (komende 24 uur)

TLE

VersSource: CelesTrak SupGP

Epoch: Sep 15, 2026, 03:14 UTC

1 59253C 24049Y   26258.13520833  .00046819  00000+0  16959-2 0  2588
2 59253  43.0008 153.4656 0001268 271.4805   9.6175 15.27552719    18

Volg STARLINK-31425 in realtime met AllMySat

Download on the App Store